| time (UTC) | temp F | wind direction | speed knots | gust knots | rain 1hr in | rain 24hr in | rain mn in | humidity % | barometer mb |
| 20260509072851 | 80 | 68 | 0.0 | 0.0 | 0.00 | 0.00 | 0.00 | 27 | 1007.3 |
| 20260509072351 | 80 | 180 | 0.0 | 0.0 | 0.00 | 0.00 | 0.00 | 25 | 1007.3 |
| 20260509072122 | 80 | 113 | 0.0 | 0.0 | 0.00 | 0.00 | 0.00 | 25 | 1007.3 |
| 20260509071622 | 80 | 113 | 0.0 | 0.0 | 0.00 | 0.00 | 0.00 | 25 | 1007.3 |
| 20260509070853 | 81 | 135 | 0.0 | 0.0 | 0.00 | 0.00 | 0.00 | 27 | 1007.3 |
| 20260509070352 | 81 | 135 | 0.0 | 0.0 | 0.00 | 0.00 | 0.00 | 25 | 1007.3 |
| 20260509065853 | 81 | 135 | 0.0 | 0.0 | 0.00 | 0.00 | 0.00 | 25 | 1007.3 |
| 20260509065352 | 82 | 135 | 0.0 | 0.0 | 0.00 | 0.00 | 0.00 | 25 | 1007.3 |
| 20260509065124 | 82 | 203 | 0.0 | 0.0 | 0.00 | 0.00 | 0.00 | 25 | 1007.3 |
| 20260509064351 | 82 | 203 | 0.0 | 0.0 | 0.00 | 0.00 | 0.00 | 25 | 1007.3 |
| 20260509063851 | 82 | 203 | 0.0 | 0.0 | 0.00 | 0.00 | 0.00 | 25 | 1007.3 |
| 20260509063351 | 82 | 203 | 0.0 | 0.0 | 0.00 | 0.00 | 0.00 | 25 | 1007.3 |
| 20260509062851 | 83 | 203 | 0.0 | 0.0 | 0.00 | 0.00 | 0.00 | 25 | 1007.3 |
| 20260509062352 | 83 | 203 | 0.0 | 0.0 | 0.00 | 0.00 | 0.00 | 22 | 1007.3 |
| 20260509061834 | 83 | 203 | 0.0 | 0.0 | 0.00 | 0.00 | 0.00 | 22 | 1007.3 |
| 20260509061334 | 83 | 203 | 0.0 | 0.9 | 0.00 | 0.00 | 0.00 | 22 | 1007.3 |
| 20260509061104 | 83 | 203 | 0.0 | 0.9 | 0.00 | 0.00 | 0.00 | 22 | 1007.3 |
| 20260509060334 | 83 | 203 | 0.0 | 0.0 | 0.00 | 0.00 | 0.00 | 22 | 1006.9 |
| 20260509055833 | 83 | 270 | 0.0 | 0.9 | 0.00 | 0.00 | 0.00 | 22 | 1007.3 |
| 20260509055602 | 84 | 270 | 0.0 | 1.7 | 0.00 | 0.00 | 0.00 | 22 | 1007.3 |
| 20260509054832 | 84 | 248 | 0.0 | 1.7 | 0.00 | 0.00 | 0.00 | 22 | 1007.3 |
| 20260509054333 | 84 | 270 | 0.0 | 0.9 | 0.00 | 0.00 | 0.00 | 22 | 1006.9 |
| 20260509054104 | 85 | 270 | 0.0 | 1.7 | 0.00 | 0.00 | 0.00 | 22 | 1006.9 |
| 20260509053333 | 85 | 203 | 0.0 | 1.7 | 0.00 | 0.00 | 0.00 | 22 | 1007.3 |
| 20260509053104 | 85 | 270 | 0.0 | 1.7 | 0.00 | 0.00 | 0.00 | 22 | 1006.9 |
| 20260509052333 | 85 | 248 | 0.0 | 0.0 | 0.00 | 0.00 | 0.00 | 22 | 1007.3 |
| 20260509051834 | 86 | 248 | 0.0 | 0.0 | 0.00 | 0.00 | 0.00 | 24 | 1007.3 |
| 20260509051332 | 86 | 270 | 0.0 | 0.0 | 0.00 | 0.00 | 0.00 | 24 | 1007.3 |
| 20260509050832 | 86 | 248 | 0.0 | 0.0 | 0.00 | 0.00 | 0.00 | 22 | 1007.3 |
| 20260509050333 | 87 | 270 | 0.0 | 0.0 | 0.00 | 0.00 | 0.00 | 20 | 1006.9 |
| 20260509045833 | 87 | 225 | 0.0 | 0.0 | 0.00 | 0.00 | 0.00 | 20 | 1007.3 |
| 20260509045333 | 87 | 225 | 0.0 | 1.7 | 0.00 | 0.00 | 0.00 | 20 | 1007.3 |
| 20260509044833 | 87 | 203 | 0.0 | 2.6 | 0.00 | 0.00 | 0.00 | 20 | 1007.3 |
| 20260509044334 | 88 | 225 | 0.0 | 3.5 | 0.00 | 0.00 | 0.00 | 20 | 1006.9 |
| 20260509043834 | 88 | 248 | 0.0 | 3.5 | 0.00 | 0.00 | 0.00 | 19 | 1006.9 |
| 20260509043334 | 88 | 180 | 0.0 | 2.6 | 0.00 | 0.00 | 0.00 | 19 | 1006.9 |
| 20260509042834 | 88 | 248 | 0.0 | 4.3 | 0.00 | 0.00 | 0.00 | 17 | 1006.9 |
| 20260509042332 | 88 | 248 | 0.0 | 4.3 | 0.00 | 0.00 | 0.00 | 17 | 1006.9 |
| 20260509041833 | 89 | 225 | 0.0 | 2.6 | 0.00 | 0.00 | 0.00 | 19 | 1006.9 |
| 20260509041603 | 89 | 225 | 0.0 | 2.6 | 0.00 | 0.00 | 0.00 | 19 | 1006.5 |
| 20260509040832 | 89 | 248 | 0.0 | 2.6 | 0.00 | 0.00 | 0.00 | 19 | 1006.5 |
| 20260509040334 | 89 | 180 | 0.0 | 2.6 | 0.00 | 0.00 | 0.00 | 17 | 1006.2 |
| 20260509035834 | 90 | 225 | 0.0 | 2.6 | 0.00 | 0.00 | 0.00 | 17 | 1006.2 |
| 20260509035333 | 90 | 225 | 0.0 | 2.6 | 0.00 | 0.00 | 0.00 | 17 | 1006.2 |
| 20260509035104 | 90 | 225 | 0.0 | 3.5 | 0.00 | 0.00 | 0.00 | 17 | 1006.2 |
| 20260509034334 | 90 | 203 | 0.0 | 3.5 | 0.00 | 0.00 | 0.00 | 17 | 1006.2 |
| 20260509034102 | 90 | 225 | 0.9 | 3.5 | 0.00 | 0.00 | 0.00 | 17 | 1006.2 |
| 20260509033332 | 90 | 248 | 0.0 | 2.6 | 0.00 | 0.00 | 0.00 | 17 | 1005.9 |
| 20260509032832 | 91 | 180 | 0.0 | 2.6 | 0.00 | 0.00 | 0.00 | 17 | 1006.2 |
| 20260509032603 | 91 | 225 | 0.0 | 0.9 | 0.00 | 0.00 | 0.00 | 19 | 1005.9 |
| 20260509031832 | 92 | 225 | 0.0 | 0.0 | 0.00 | 0.00 | 0.00 | 19 | 1005.9 |
| 20260509031605 | 92 | 248 | 0.0 | 0.9 | 0.00 | 0.00 | 0.00 | 17 | 1005.9 |
| 20260509030834 | 92 | 203 | 0.0 | 1.7 | 0.00 | 0.00 | 0.00 | 17 | 1005.9 |
| 20260509030333 | 93 | 203 | 0.0 | 1.7 | 0.00 | 0.00 | 0.00 | 17 | 1005.9 |
| 20260509030053 | 93 | 180 | 0.0 | 0.9 | 0.00 | 0.00 | 0.00 | 15 | 1005.5 |
| 20260509025314 | 94 | 158 | 0.0 | 1.7 | 0.00 | 0.00 | 0.00 | 15 | 1005.5 |
| 20260509024813 | 94 | 158 | 0.0 | 1.7 | 0.00 | 0.00 | 0.00 | 15 | 1005.5 |
| 20260509024314 | 94 | 158 | 0.0 | 1.7 | 0.00 | 0.00 | 0.00 | 15 | 1005.5 |
| 20260509023813 | 94 | 180 | 0.0 | 1.7 | 0.00 | 0.00 | 0.00 | 15 | 1005.5 |
| 20260509023314 | 94 | 293 | 0.0 | 1.7 | 0.00 | 0.00 | 0.00 | 13 | 1005.5 |
| 20260509022816 | 95 | 203 | 0.0 | 2.6 | 0.00 | 0.00 | 0.00 | 13 | 1005.5 |
| 20260509022314 | 95 | 315 | 0.9 | 3.5 | 0.00 | 0.00 | 0.00 | 13 | 1005.5 |
| 20260509021814 | 95 | 248 | 0.9 | 4.3 | 0.00 | 0.00 | 0.00 | 13 | 1005.2 |
| 20260509021314 | 95 | 270 | 0.0 | 4.3 | 0.00 | 0.00 | 0.00 | 13 | 1005.5 |
| 20260509020815 | 95 | 225 | 0.9 | 4.3 | 0.00 | 0.00 | 0.00 | 13 | 1005.2 |
| 20260509020312 | 96 | 270 | 0.9 | 4.3 | 0.00 | 0.00 | 0.00 | 13 | 1005.5 |
| 20260509015813 | 96 | 270 | 0.9 | 7.8 | 0.00 | 0.00 | 0.00 | 13 | 1005.2 |
| 20260509015313 | 96 | 270 | 0.9 | 7.8 | 0.00 | 0.00 | 0.00 | 12 | 1005.2 |
| 20260509014814 | 96 | 270 | 0.9 | 6.1 | 0.00 | 0.00 | 0.00 | 12 | 1005.2 |
| 20260509014314 | 96 | 270 | 0.9 | 8.7 | 0.00 | 0.00 | 0.00 | 12 | 1005.2 |
| 20260509013814 | 96 | 203 | 1.7 | 8.7 | 0.00 | 0.00 | 0.00 | 13 | 1005.2 |
| 20260509013545 | 97 | 248 | 0.9 | 7.0 | 0.00 | 0.00 | 0.00 | 12 | 1005.2 |
| 20260509012814 | 97 | 270 | 1.7 | 7.8 | 0.00 | 0.00 | 0.00 | 12 | 1005.2 |
| 20260509012314 | 97 | 293 | 0.9 | 7.8 | 0.00 | 0.00 | 0.00 | 13 | 1004.8 |
| 20260509011813 | 98 | 270 | 0.9 | 6.1 | 0.00 | 0.00 | 0.00 | 12 | 1005.2 |
| 20260509011312 | 98 | 270 | 1.7 | 6.1 | 0.00 | 0.00 | 0.00 | 13 | 1005.5 |
| 20260509011044 | 98 | 203 | 1.7 | 8.7 | 0.00 | 0.00 | 0.00 | 12 | 1005.2 |
| 20260509010313 | 98 | 248 | 0.9 | 8.7 | 0.00 | 0.00 | 0.00 | 12 | 1005.2 |
| 20260509005814 | 98 | 270 | 0.9 | 6.1 | 0.00 | 0.00 | 0.00 | 13 | 1005.2 |
| 20260509005313 | 98 | 270 | 1.7 | 6.1 | 0.00 | 0.00 | 0.00 | 12 | 1005.5 |
| 20260509004813 | 99 | 315 | 1.7 | 6.1 | 0.00 | 0.00 | 0.00 | 12 | 1005.2 |
| 20260509004313 | 99 | 158 | 0.9 | 5.2 | 0.00 | 0.00 | 0.00 | 12 | 1005.2 |
| 20260509003816 | 99 | 0 | 1.7 | 7.8 | 0.00 | 0.00 | 0.00 | 13 | 1005.5 |
| 20260509003812 | 99 | 270 | 0.9 | 7.0 | 0.00 | 0.00 | 0.00 | 13 | 1005.5 |
| 20260509002817 | 100 | 270 | 0.9 | 6.1 | 0.00 | 0.00 | 0.00 | 12 | 1005.5 |
| 20260509002812 | 100 | 293 | 1.7 | 7.8 | 0.00 | 0.00 | 0.00 | 12 | 1005.5 |
| 20260509001813 | 100 | 203 | 1.7 | 6.1 | 0.00 | 0.00 | 0.00 | 12 | 1005.5 |
| 20260509001313 | 100 | 338 | 0.9 | 7.0 | 0.00 | 0.00 | 0.00 | 12 | 1005.5 |
| 20260509000813 | 100 | 45 | 1.7 | 7.0 | 0.00 | 0.00 | 0.00 | 12 | 1005.9 |
| 20260509000313 | 100 | 225 | 1.7 | 8.7 | 0.00 | 0.00 | 0.00 | 12 | 1005.5 |
| 20260508235813 | 100 | 270 | 1.7 | 8.7 | 0.00 | 0.00 | 0.00 | 12 | 1005.9 |
| 20260508235312 | 100 | 293 | 0.9 | 7.0 | 0.00 | 0.00 | 0.00 | 12 | 1005.5 |
| 20260508234812 | 101 | 180 | 0.9 | 7.8 | 0.00 | 0.00 | 0.00 | 12 | 1005.9 |
| 20260508234311 | 101 | 248 | 1.7 | 9.6 | 0.00 | 0.00 | 0.00 | 12 | 1005.9 |
| 20260508233811 | 101 | 113 | 1.7 | 9.6 | 0.00 | 0.00 | 0.00 | 12 | 1005.9 |
| 20260508233312 | 101 | 270 | 1.7 | 7.8 | 0.00 | 0.00 | 0.00 | 12 | 1005.9 |
| 20260508232813 | 101 | 315 | 1.7 | 7.8 | 0.00 | 0.00 | 0.00 | 12 | 1005.9 |
| 20260508232313 | 101 | 225 | 1.7 | 7.0 | 0.00 | 0.00 | 0.00 | 12 | 1005.9 |
| 20260508231812 | 101 | 90 | 1.7 | 9.6 | 0.00 | 0.00 | 0.00 | 12 | 1005.9 |
| 20260508231312 | 100 | 68 | 1.7 | 9.6 | 0.00 | 0.00 | 0.00 | 12 | 1005.9 |
| 20260508231042 | 100 | 270 | 1.7 | 9.6 | 0.00 | 0.00 | 0.00 | 12 | 1006.2 |
| 20260508230311 | 100 | 23 | 2.6 | 9.6 | 0.00 | 0.00 | 0.00 | 12 | 1005.9 |
| 20260508225812 | 100 | 23 | 1.7 | 7.0 | 0.00 | 0.00 | 0.00 | 12 | 1005.9 |
| 20260508225311 | 100 | 203 | 1.7 | 7.8 | 0.00 | 0.00 | 0.00 | 12 | 1006.2 |
| 20260508224812 | 100 | 225 | 2.6 | 7.8 | 0.00 | 0.00 | 0.00 | 12 | 1006.2 |
| 20260508224312 | 100 | 270 | 1.7 | 7.8 | 0.00 | 0.00 | 0.00 | 12 | 1006.2 |
| 20260508223811 | 100 | 180 | 1.7 | 11.3 | 0.00 | 0.00 | 0.00 | 12 | 1006.2 |
| 20260508223312 | 100 | 225 | 1.7 | 11.3 | 0.00 | 0.00 | 0.00 | 13 | 1006.2 |
| 20260508222811 | 100 | 293 | 1.7 | 7.8 | 0.00 | 0.00 | 0.00 | 12 | 1006.5 |
| 20260508222310 | 100 | 203 | 1.7 | 8.7 | 0.00 | 0.00 | 0.00 | 12 | 1006.5 |
| 20260508222042 | 100 | 203 | 1.7 | 8.7 | 0.00 | 0.00 | 0.00 | 12 | 1006.5 |
| 20260508221311 | 100 | 0 | 0.9 | 7.0 | 0.00 | 0.00 | 0.00 | 15 | 1006.9 |
| 20260508220810 | 99 | 113 | 0.9 | 7.0 | 0.00 | 0.00 | 0.00 | 15 | 1006.9 |
| 20260508220543 | 99 | 270 | 0.9 | 6.1 | 0.00 | 0.00 | 0.00 | 15 | 1006.9 |
| 20260508215811 | 99 | 248 | 0.9 | 6.1 | 0.00 | 0.00 | 0.00 | 13 | 1006.9 |
| 20260508215311 | 98 | 248 | 1.7 | 7.0 | 0.00 | 0.00 | 0.00 | 15 | 1007.3 |
| 20260508214811 | 98 | 338 | 1.7 | 7.0 | 0.00 | 0.00 | 0.00 | 15 | 1007.3 |
| 20260508214542 | 98 | 23 | 0.9 | 6.1 | 0.00 | 0.00 | 0.00 | 15 | 1007.6 |
| 20260508213811 | 98 | 248 | 0.9 | 5.2 | 0.00 | 0.00 | 0.00 | 15 | 1007.6 |
| 20260508213310 | 98 | 158 | 1.7 | 6.1 | 0.00 | 0.00 | 0.00 | 15 | 1007.6 |
| 20260508212809 | 98 | 180 | 1.7 | 9.6 | 0.00 | 0.00 | 0.00 | 15 | 1007.6 |
| 20260508212309 | 98 | 225 | 1.7 | 9.6 | 0.00 | 0.00 | 0.00 | 15 | 1007.6 |
| 20260508211810 | 97 | 338 | 0.9 | 6.1 | 0.00 | 0.00 | 0.00 | 17 | 1008.0 |
| 20260508211312 | 97 | 270 | 1.7 | 7.8 | 0.00 | 0.00 | 0.00 | 15 | 1008.3 |
| 20260508210811 | 97 | 248 | 1.7 | 7.8 | 0.00 | 0.00 | 0.00 | 15 | 1008.3 |
| 20260508210311 | 97 | 225 | 0.9 | 6.1 | 0.00 | 0.00 | 0.00 | 15 | 1008.3 |
| 20260508205810 | 97 | 270 | 0.9 | 5.2 | 0.00 | 0.00 | 0.00 | 15 | 1008.3 |
| 20260508205309 | 96 | 338 | 0.9 | 5.2 | 0.00 | 0.00 | 0.00 | 15 | 1008.3 |
| 20260508204810 | 96 | 225 | 0.9 | 5.2 | 0.00 | 0.00 | 0.00 | 15 | 1008.7 |
| 20260508204309 | 96 | 293 | 0.9 | 5.2 | 0.00 | 0.00 | 0.00 | 15 | 1008.7 |
| 20260508203809 | 96 | 225 | 0.9 | 5.2 | 0.00 | 0.00 | 0.00 | 15 | 1008.7 |
| 20260508203309 | 96 | 270 | 0.9 | 5.2 | 0.00 | 0.00 | 0.00 | 15 | 1008.7 |
| 20260508202810 | 96 | 0 | 0.9 | 4.3 | 0.00 | 0.00 | 0.00 | 15 | 1009.0 |
| 20260508202310 | 95 | 180 | 0.9 | 4.3 | 0.00 | 0.00 | 0.00 | 15 | 1008.7 |
| 20260508201810 | 95 | 180 | 0.0 | 6.1 | 0.00 | 0.00 | 0.00 | 17 | 1008.7 |
| 20260508201309 | 95 | 203 | 0.9 | 6.1 | 0.00 | 0.00 | 0.00 | 15 | 1008.7 |
| 20260508200809 | 96 | 225 | 0.9 | 4.3 | 0.00 | 0.00 | 0.00 | 15 | 1009.0 |
| 20260508200309 | 95 | 270 | 0.0 | 3.5 | 0.00 | 0.00 | 0.00 | 17 | 1009.0 |
| 20260508195809 | 95 | 68 | 0.0 | 4.3 | 0.00 | 0.00 | 0.00 | 17 | 1009.3 |
| 20260508195308 | 95 | 0 | 0.9 | 5.2 | 0.00 | 0.00 | 0.00 | 17 | 1009.3 |
| 20260508195040 | 94 | 270 | 0.9 | 5.2 | 0.00 | 0.00 | 0.00 | 17 | 1009.7 |
| 20260508194310 | 94 | 225 | 0.9 | 5.2 | 0.00 | 0.00 | 0.00 | 17 | 1009.3 |
| 20260508193810 | 94 | 270 | 0.9 | 5.2 | 0.00 | 0.00 | 0.00 | 17 | 1009.7 |
| 20260508193310 | 93 | 338 | 0.0 | 5.2 | 0.00 | 0.00 | 0.00 | 17 | 1009.7 |
| 20260508192809 | 93 | 225 | 0.9 | 5.2 | 0.00 | 0.00 | 0.00 | 17 | 1009.7 |
| 20260508192541 | 93 | 270 | 0.0 | 5.2 | 0.00 | 0.00 | 0.00 | 17 | 1010.0 |
| 20260508191813 | 93 | 225 | 0.0 | 2.6 | 0.00 | 0.00 | 0.00 | 17 | 1010.0 |
| 20260508191808 | 93 | 248 | 0.9 | 5.2 | 0.00 | 0.00 | 0.00 | 17 | 1010.0 |
| 20260508190808 | 92 | 158 | 0.0 | 2.6 | 0.00 | 0.00 | 0.00 | 15 | 1010.0 |
| 20260508190310 | 92 | 135 | 0.0 | 5.2 | 0.00 | 0.00 | 0.00 | 17 | 1010.0 |
| 20260508185809 | 92 | 225 | 0.9 | 5.2 | 0.00 | 0.00 | 0.00 | 17 | 1010.5 |
| 20260508185310 | 92 | 203 | 0.9 | 5.2 | 0.00 | 0.00 | 0.00 | 17 | 1010.0 |
| 20260508184809 | 92 | 203 | 0.9 | 5.2 | 0.00 | 0.00 | 0.00 | 19 | 1010.5 |
| 20260508184309 | 91 | 45 | 0.0 | 2.6 | 0.00 | 0.00 | 0.00 | 19 | 1010.0 |
| 20260508183809 | 91 | 113 | 0.0 | 3.5 | 0.00 | 0.00 | 0.00 | 19 | 1010.5 |
| 20260508183307 | 91 | 248 | 0.0 | 3.5 | 0.00 | 0.00 | 0.00 | 19 | 1010.5 |
| 20260508183039 | 91 | 23 | 0.0 | 4.3 | 0.00 | 0.00 | 0.00 | 17 | 1010.5 |
| 20260508182539 | 91 | 203 | 0.9 | 4.3 | 0.00 | 0.00 | 0.00 | 17 | 1010.5 |
| 20260508181808 | 90 | 270 | 0.0 | 3.5 | 0.00 | 0.00 | 0.00 | 19 | 1010.8 |
| 20260508181521 | 90 | 248 | 0.0 | 3.5 | 0.00 | 0.00 | 0.00 | 19 | 1010.8 |
| 20260508180751 | 90 | 248 | 0.9 | 3.5 | 0.00 | 0.00 | 0.00 | 19 | 1011.1 |
| 20260508180250 | 90 | 248 | 0.9 | 4.3 | 0.00 | 0.00 | 0.00 | 20 | 1010.8 |
| 20260508175751 | 89 | 68 | 0.9 | 4.3 | 0.00 | 0.00 | 0.00 | 19 | 1011.1 |
| 20260508175250 | 89 | 203 | 0.0 | 2.6 | 0.00 | 0.00 | 0.00 | 20 | 1011.1 |
| 20260508174749 | 89 | 180 | 0.0 | 3.5 | 0.00 | 0.00 | 0.00 | 19 | 1011.1 |
| 20260508174249 | 89 | 203 | 0.9 | 3.5 | 0.00 | 0.00 | 0.00 | 20 | 1011.1 |
| 20260508174019 | 88 | 203 | 0.0 | 2.6 | 0.00 | 0.00 | 0.00 | 20 | 1011.1 |
| 20260508173521 | 88 | 180 | 0.0 | 2.6 | 0.00 | 0.00 | 0.00 | 20 | 1011.5 |
| 20260508172750 | 88 | 113 | 0.0 | 3.5 | 0.00 | 0.00 | 0.00 | 20 | 1011.5 |
| 20260508172250 | 87 | 158 | 0.9 | 3.5 | 0.00 | 0.00 | 0.00 | 20 | 1011.1 |
| 20260508171750 | 87 | 203 | 0.9 | 3.5 | 0.00 | 0.00 | 0.00 | 22 | 1011.5 |
| 20260508171522 | 87 | 248 | 0.9 | 3.5 | 0.00 | 0.00 | 0.00 | 20 | 1011.5 |
| 20260508170750 | 87 | 180 | 0.0 | 3.5 | 0.00 | 0.00 | 0.00 | 22 | 1011.5 |
| 20260508170249 | 86 | 158 | 0.0 | 3.5 | 0.00 | 0.00 | 0.00 | 22 | 1011.5 |
| 20260508165749 | 86 | 68 | 0.0 | 5.2 | 0.00 | 0.00 | 0.00 | 22 | 1011.5 |
| 20260508165249 | 86 | 180 | 0.9 | 5.2 | 0.00 | 0.00 | 0.00 | 20 | 1011.5 |
| 20260508164749 | 86 | 270 | 0.9 | 4.3 | 0.00 | 0.00 | 0.00 | 22 | 1011.8 |
| 20260508164250 | 85 | 135 | 0.9 | 3.5 | 0.00 | 0.00 | 0.00 | 22 | 1011.8 |
| 20260508163750 | 85 | 158 | 0.0 | 2.6 | 0.00 | 0.00 | 0.00 | 22 | 1011.8 |
| 20260508163250 | 85 | 203 | 0.0 | 2.6 | 0.00 | 0.00 | 0.00 | 22 | 1011.8 |
| 20260508162750 | 85 | 68 | 0.9 | 3.5 | 0.00 | 0.00 | 0.00 | 22 | 1011.8 |
| 20260508162250 | 84 | 180 | 0.0 | 4.3 | 0.00 | 0.00 | 0.00 | 22 | 1011.8 |
| 20260508161749 | 84 | 270 | 0.9 | 4.3 | 0.00 | 0.00 | 0.00 | 24 | 1011.8 |
| 20260508161249 | 83 | 180 | 0.0 | 3.5 | 0.00 | 0.00 | 0.00 | 24 | 1011.8 |
| 20260508160746 | 83 | 180 | 0.9 | 3.5 | 0.00 | 0.00 | 0.00 | 24 | 1011.8 |
| 20260508160231 | 83 | 225 | 0.0 | 5.2 | 0.00 | 0.00 | 0.00 | 24 | 1011.8 |
| 20260508155730 | 83 | 180 | 0.9 | 5.2 | 0.00 | 0.00 | 0.00 | 24 | 1011.5 |
| 20260508155231 | 83 | 180 | 0.9 | 3.5 | 0.00 | 0.00 | 0.00 | 24 | 1011.8 |
| 20260508154731 | 82 | 113 | 0.0 | 3.5 | 0.00 | 0.00 | 0.00 | 25 | 1011.8 |
| 20260508154236 | 81 | 270 | 0.0 | 3.5 | 0.00 | 0.00 | 0.00 | 25 | 1011.5 |
| 20260508154232 | 82 | 68 | 0.0 | 1.7 | 0.00 | 0.00 | 0.00 | 25 | 1011.5 |
| 20260508153231 | 81 | 158 | 0.0 | 3.5 | 0.00 | 0.00 | 0.00 | 25 | 1011.8 |
| 20260508152730 | 80 | 158 | 0.0 | 0.9 | 0.00 | 0.00 | 0.00 | 25 | 1011.8 |
| 20260508152230 | 80 | 135 | 0.0 | 1.7 | 0.00 | 0.00 | 0.00 | 25 | 1011.8 |
| 20260508151730 | 80 | 180 | 0.0 | 2.6 | 0.00 | 0.00 | 0.00 | 25 | 1011.8 |
| 20260508151230 | 80 | 293 | 0.0 | 2.6 | 0.00 | 0.00 | 0.00 | 25 | 1011.8 |
| 20260508150731 | 79 | 0 | 0.0 | 1.7 | 0.00 | 0.00 | 0.00 | 27 | 1012.1 |
| 20260508150231 | 79 | 0 | 0.0 | 1.7 | 0.00 | 0.00 | 0.00 | 27 | 1011.8 |
| 20260508145731 | 78 | 45 | 0.0 | 0.9 | 0.00 | 0.00 | 0.00 | 27 | 1011.8 |
| 20260508145232 | 77 | 338 | 0.0 | 1.7 | 0.00 | 0.00 | 0.00 | 27 | 1011.8 |
| 20260508144731 | 76 | 68 | 0.0 | 1.7 | 0.00 | 0.00 | 0.00 | 27 | 1011.8 |
| 20260508144230 | 76 | 248 | 0.0 | 0.9 | 0.00 | 0.00 | 0.00 | 29 | 1011.8 |
| 20260508144003 | 75 | 225 | 0.0 | 1.7 | 0.00 | 0.00 | 0.00 | 29 | 1011.5 |
| 20260508143230 | 75 | 158 | 0.0 | 1.7 | 0.00 | 0.00 | 0.00 | 30 | 1011.8 |
| 20260508143001 | 74 | 113 | 0.0 | 1.7 | 0.00 | 0.00 | 0.00 | 30 | 1011.8 |
| 20260508142213 | 74 | 23 | 0.0 | 1.7 | 0.00 | 0.00 | 0.00 | 31 | 1011.5 |
| 20260508141712 | 73 | 90 | 0.0 | 1.7 | 0.00 | 0.00 | 0.00 | 31 | 1011.8 |
| 20260508141213 | 73 | 203 | 0.0 | 1.7 | 0.00 | 0.00 | 0.00 | 31 | 1011.5 |
| 20260508140715 | 72 | 270 | 0.0 | 1.7 | 0.00 | 0.00 | 0.00 | 30 | 1011.5 |
| 20260508140212 | 71 | 225 | 0.0 | 2.6 | 0.00 | 0.00 | 0.00 | 30 | 1011.5 |
| 20260508135706 | 71 | 23 | 0.0 | 2.6 | 0.00 | 0.00 | 0.00 | 32 | 1011.5 |
| 20260508135423 | 71 | 338 | 0.0 | 0.9 | 0.00 | 0.00 | 0.00 | 31 | 1011.1 |
| 20260508134653 | 71 | 135 | 0.0 | 0.9 | 0.00 | 0.00 | 0.00 | 31 | 1011.1 |
| 20260508134152 | 70 | 293 | 0.0 | 0.9 | 0.00 | 0.00 | 0.00 | 31 | 1011.1 |
| 20260508133652 | 69 | 248 | 0.0 | 0.9 | 0.00 | 0.00 | 0.00 | 32 | 1011.1 |
| 20260508133141 | 69 | 248 | 0.0 | 0.9 | 0.00 | 0.00 | 0.00 | 32 | 1011.1 |
| 20260508132650 | 69 | 338 | 0.0 | 0.0 | 0.00 | 0.00 | 0.00 | 31 | 1010.8 |
| 20260508132014 | 69 | 270 | 0.0 | 0.9 | 0.00 | 0.00 | 0.00 | 32 | 1011.1 |
| 20260508131507 | 69 | 45 | 0.0 | 2.6 | 0.00 | 0.00 | 0.00 | 32 | 1010.8 |
| 20260508131200 | 69 | 270 | 0.0 | 2.6 | 0.00 | 0.00 | 0.00 | 32 | 1010.5 |
| 20260508130405 | 69 | 203 | 0.0 | 0.9 | 0.00 | 0.00 | 0.00 | 32 | 1010.8 |
| 20260508125834 | 69 | 315 | 0.0 | 0.9 | 0.00 | 0.00 | 0.00 | 32 | 1010.8 |
| 20260508125212 | 69 | 23 | 0.0 | 0.0 | 0.00 | 0.00 | 0.00 | 32 | 1010.5 |
| 20260508124648 | 0 | 270 | 0.0 | 0.9 | 0.00 | 0.00 | 0.00 | 1010.5 | |
| 20260508124355 | 69 | 45 | 0.0 | 0.9 | 0.00 | 0.00 | 0.00 | 31 | 1010.5 |
| 20260508123319 | 69 | 338 | 0.0 | 0.9 | 0.00 | 0.00 | 0.00 | 32 | 1010.5 |
| 20260508122819 | 69 | 0 | 0.0 | 1.7 | 0.00 | 0.00 | 0.00 | 32 | 1010.5 |
| 20260508122130 | 69 | 248 | 0.0 | 2.6 | 0.00 | 0.00 | 0.00 | 32 | 1010.5 |
| 20260508122035 | 69 | 23 | 0.0 | 0.9 | 0.00 | 0.00 | 0.00 | 32 | 1010.0 |
| 20260508121020 | 69 | 293 | 0.0 | 0.0 | 0.00 | 0.00 | 0.00 | 32 | 1010.0 |
| 20260508120350 | 69 | 338 | 0.0 | 0.9 | 0.00 | 0.00 | 0.00 | 32 | 1010.0 |
| 20260508115844 | 69 | 315 | 0.0 | 0.9 | 0.00 | 0.00 | 0.00 | 32 | 1010.0 |
| 20260508115315 | 69 | 315 | 0.0 | 0.0 | 0.00 | 0.00 | 0.00 | 32 | 1010.0 |
| 20260508114804 | 69 | 270 | 0.0 | 0.9 | 0.00 | 0.00 | 0.00 | 32 | 1010.0 |
| 20260508114311 | 69 | 68 | 0.0 | 0.9 | 0.00 | 0.00 | 0.00 | 32 | 1010.0 |
| 20260508113747 | 69 | 113 | 0.0 | 0.9 | 0.00 | 0.00 | 0.00 | 32 | 1010.0 |
| 20260508113233 | 69 | 45 | 0.0 | 0.0 | 0.00 | 0.00 | 0.00 | 32 | 1009.7 |
| 20260508113229 | 69 | 68 | 0.0 | 0.9 | 0.00 | 0.00 | 0.00 | 32 | 1010.0 |
| 20260508112444 | 70 | 68 | 0.0 | 0.9 | 0.00 | 0.00 | 0.00 | 32 | 1009.7 |
| 20260508112359 | 69 | 68 | 0.0 | 0.0 | 0.00 | 0.00 | 0.00 | 32 | 1010.0 |
| 20260508111338 | 70 | 45 | 0.0 | 0.9 | 0.00 | 0.00 | 0.00 | 32 | 1009.7 |
| 20260508110833 | 70 | 90 | 0.0 | 0.0 | 0.00 | 0.00 | 0.00 | 31 | 1009.7 |
| 20260508110005 | 70 | 68 | 0.0 | 0.0 | 0.00 | 0.00 | 0.00 | 31 | 1009.7 |
| 20260508105458 | 70 | 45 | 0.0 | 0.0 | 0.00 | 0.00 | 0.00 | 31 | 1009.7 |
| 20260508105006 | 70 | 113 | 0.0 | 0.0 | 0.00 | 0.00 | 0.00 | 32 | 1009.7 |
| 20260508104444 | 70 | 203 | 0.0 | 0.0 | 0.00 | 0.00 | 0.00 | 31 | 1009.7 |
| 20260508104434 | 70 | 23 | 0.0 | 0.0 | 0.00 | 0.00 | 0.00 | 32 | 1009.7 |
| 20260508103402 | 70 | 248 | 0.0 | 0.0 | 0.00 | 0.00 | 0.00 | 31 | 1009.7 |
| 20260508102851 | 71 | 270 | 0.0 | 0.0 | 0.00 | 0.00 | 0.00 | 35 | 1009.7 |
| 20260508102358 | 70 | 315 | 0.0 | 0.9 | 0.00 | 0.00 | 0.00 | 31 | 1009.7 |
| 20260508101843 | 71 | 270 | 0.0 | 0.9 | 0.00 | 0.00 | 0.00 | 31 | 1009.7 |
| 20260508101331 | 71 | 45 | 0.0 | 0.0 | 0.00 | 0.00 | 0.00 | 34 | 1009.7 |
| 20260508101110 | 71 | 23 | 0.0 | 0.0 | 0.00 | 0.00 | 0.00 | 32 | 1009.7 |
| 20260508100838 | 71 | 23 | 0.0 | 0.0 | 0.00 | 0.00 | 0.00 | 32 | 1009.7 |
| 20260508100335 | 71 | 23 | 0.0 | 0.0 | 0.00 | 0.00 | 0.00 | 31 | 1009.7 |
| 20260508100059 | 71 | 338 | 0.0 | 0.0 | 0.00 | 0.00 | 0.00 | 30 | 1009.3 |
| 20260508095320 | 71 | 315 | 0.0 | 0.0 | 0.00 | 0.00 | 0.00 | 30 | 1009.3 |
| 20260508094642 | 71 | 0 | 0.0 | 1.7 | 0.00 | 0.00 | 0.00 | 30 | 1009.3 |
| 20260508094124 | 71 | 23 | 0.0 | 1.7 | 0.00 | 0.00 | 0.00 | 30 | 1009.3 |
| 20260508093604 | 71 | 45 | 0.0 | 0.9 | 0.00 | 0.00 | 0.00 | 30 | 1009.3 |
| 20260508093050 | 72 | 45 | 0.0 | 1.7 | 0.00 | 0.00 | 0.00 | 30 | 1009.3 |
| 20260508092545 | 72 | 113 | 0.0 | 1.7 | 0.00 | 0.00 | 0.00 | 30 | 1009.3 |
| 20260508092044 | 72 | 135 | 0.0 | 1.7 | 0.00 | 0.00 | 0.00 | 27 | 1009.7 |
| 20260508091547 | 72 | 113 | 0.0 | 1.7 | 0.00 | 0.00 | 0.00 | 27 | 1009.3 |
| 20260508091039 | 72 | 135 | 0.0 | 1.7 | 0.00 | 0.00 | 0.00 | 27 | 1009.3 |
| 20260508090532 | 72 | 338 | 0.0 | 3.5 | 0.00 | 0.00 | 0.00 | 27 | 1009.7 |
| 20260508090017 | 72 | 23 | 0.9 | 3.5 | 0.00 | 0.00 | 0.00 | 25 | 1009.7 |
| 20260508085814 | 73 | 90 | 1.7 | 2.6 | 0.00 | 0.00 | 0.00 | 25 | 1009.7 |
| 20260508084953 | 73 | 45 | 0.9 | 2.6 | 0.00 | 0.00 | 0.00 | 25 | 1009.7 |
| 20260508084444 | 73 | 68 | 0.9 | 2.6 | 0.00 | 0.00 | 0.00 | 25 | 1009.7 |
| 20260508083943 | 73 | 68 | 0.9 | 2.6 | 0.00 | 0.00 | 0.00 | 25 | 1009.7 |
| 20260508083433 | 73 | 0 | 0.0 | 1.7 | 0.00 | 0.00 | 0.00 | 27 | 1009.7 |
| 20260508082905 | 73 | 90 | 0.0 | 1.7 | 0.00 | 0.00 | 0.00 | 27 | 1009.7 |
| 20260508082405 | 73 | 45 | 0.0 | 0.9 | 0.00 | 0.00 | 0.00 | 29 | 1009.7 |
| 20260508081859 | 74 | 23 | 0.0 | 0.9 | 0.00 | 0.00 | 0.00 | 29 | 1009.7 |
| 20260508081352 | 74 | 45 | 0.0 | 0.0 | 0.00 | 0.00 | 0.00 | 27 | 1009.7 |
| 20260508080815 | 74 | 45 | 0.0 | 0.0 | 0.00 | 0.00 | 0.00 | 25 | 1009.3 |
| 20260508080309 | 74 | 338 | 0.0 | 0.0 | 0.00 | 0.00 | 0.00 | 25 | 1009.3 |
| 20260508075801 | 74 | 0 | 0.0 | 0.0 | 0.00 | 0.00 | 0.00 | 25 | 1009.3 |
| 20260508075241 | 74 | 0 | 0.0 | 0.0 | 0.00 | 0.00 | 0.00 | 25 | 1009.0 |
| 20260508074711 | 74 | 0 | 0.0 | 0.0 | 0.00 | 0.00 | 0.00 | 24 | 1009.7 |
| 20260508074513 | 74 | 23 | 0.0 | 0.0 | 0.00 | 0.00 | 0.00 | 24 | 1009.3 |
| 20260508073646 | 74 | 23 | 0.0 | 0.0 | 0.00 | 0.00 | 0.00 | 24 | 1009.3 |
| 20260508073142 | 74 | 45 | 0.0 | 0.0 | 0.00 | 0.00 | 0.00 | 22 | 1009.3 |